Location: ????????
(55.6189°N, 38.3031°E)
Time: 21:35:00
(UTC+00:00)

SL-16 R/B - Pass Details

Date: 25 February 2020
Orbit: 843 x 847 km, 71.0° (Epoch: 09 April)

Event Time Altitude Azimuth Distance (km) Brightness Sun altitude
Exits shadow 01:12:17 75° 337° (NNW) 882 2.2 -28.0°
Drops below altitude 10° 01:17:42 10° 33° (NNE) 2,477 5.3 -27.3°
Sets 01:20:10 0° 35° (NE) 3,415 6.3 -27.0°
